Date String (YYYY-MM-DD hh:mm:ss) UTC,Instrument flags,Ambient pressure (hPa),Sample flow (lpm),Bypass flow (lpm),Sample temperature (°C),Ambient temperature (°C),ASC tube jacket temperature (°C),LED temperature (°C),Box temperature (°C),Sample RH (%),Span deviation,Mass concentration (μg/m³),Mass concentration (μg/m³),Mass concentration (μg/m³)
DateTimeUTC,F1_M11,P_M11,Q1_M11,Q2_M11,T1_M11,T2_M11,T3_M11,T4_M11,T5_M11,U1_M11,ZSPAN_M11,X0_M11,X2_M11,X1_M11
2022-05-27 08:00:00,,0826.0,5.01,0.00,30.0,28.8,00.0,38.8,31.8,11.2,0000.0,0007.72,0002.66,0001.83
2022-05-27 08:01:00,,0826.0,5.01,0.00,30.0,28.8,00.0,38.9,31.8,11.3,0000.0,0007.26,0002.61,0001.83
2022-05-27 08:02:00,,0826.0,5.00,0.00,30.0,28.8,00.0,38.9,31.8,11.4,0000.0,0007.33,0002.65,0001.84
2022-05-27 08:03:00,,0826.0,4.99,0.00,30.0,28.8,00.0,38.9,31.7,11.2,0000.0,0007.41,0002.69,0001.83
2022-05-27 08:04:00,,0826.0,5.01,0.00,30.0,28.8,00.0,38.9,31.7,11.1,0000.0,0007.69,0002.64,0001.80
2022-05-27 08:05:00,,0825.9,5.01,0.00,30.0,28.8,00.0,38.9,31.8,11.2,0000.0,0007.72,0002.64,0001.79
2022-05-27 08:06:00,,0825.9,4.99,0.00,30.0,28.8,00.0,38.9,31.7,11.0,0000.0,0007.86,0002.65,0001.77
2022-05-27 08:07:00,,0826.0,5.00,0.00,30.0,28.8,00.0,38.9,31.8,11.0,0000.0,0007.84,0002.61,0001.75
2022-05-27 08:08:00,,0825.9,5.00,0.00,30.0,28.8,00.0,38.9,31.8,10.9,0000.0,0007.32,0002.57,0001.73
2022-05-27 08:09:00,,0826.0,4.99,0.00,30.0,28.8,00.0,38.9,31.7,11.0,0000.0,0005.86,0002.52,0001.73
2022-05-27 08:10:00,,0826.0,4.99,0.00,30.0,28.8,00.0,38.9,31.8,11.0,0000.0,0006.04,0002.56,0001.74
2022-05-27 08:11:00,,0826.0,5.00,0.00,30.0,28.8,00.0,38.9,31.8,10.9,0000.0,0005.97,0002.54,0001.74
2022-05-27 08:12:00,,0826.0,5.01,0.00,30.0,28.8,00.0,38.9,31.8,11.2,0000.0,0006.11,0002.55,0001.74
2022-05-27 08:13:00,,0826.1,4.99,0.00,30.0,28.9,00.0,38.9,31.8,11.0,0000.0,0005.99,0002.48,0001.72
2022-05-27 08:14:00,,0826.0,5.01,0.00,30.0,28.9,00.0,38.9,31.8,11.1,0000.0,0006.40,0002.44,0001.73
2022-05-27 08:15:00,,0826.1,5.00,0.00,30.0,28.9,00.0,38.9,31.8,12.9,0000.0,0006.26,0002.44,0001.74
2022-05-27 08:16:00,,0826.1,5.00,0.00,30.0,28.9,00.0,38.9,31.9,12.5,0000.0,0005.37,0002.43,0001.75
2022-05-27 08:17:00,,0826.1,4.99,0.00,30.0,28.9,00.0,38.9,31.9,12.3,0000.0,0005.18,0002.45,0001.74
2022-05-27 08:18:00,,0826.1,5.00,0.00,30.0,29.0,00.0,38.9,31.9,12.0,0000.0,0005.18,0002.46,0001.73
2022-05-27 08:19:00,,0826.1,5.00,0.00,30.0,29.0,00.0,38.9,31.9,11.8,0000.0,0006.27,0002.50,0001.73
2022-05-27 08:20:00,,0826.1,5.00,0.00,30.1,29.0,00.0,38.9,31.9,11.5,0000.0,0007.98,0002.54,0001.72
2022-05-27 08:21:00,,0826.1,4.99,0.00,30.1,29.0,00.0,39.0,31.9,11.6,0000.0,0007.92,0002.52,0001.71
2022-05-27 08:22:00,,0826.1,5.00,0.00,30.1,29.0,00.0,39.0,31.9,11.7,0000.0,0008.06,0002.57,0001.71
2022-05-27 08:23:00,,0826.1,5.00,0.00,30.1,29.0,00.0,39.0,31.9,11.7,0000.0,0008.49,0002.56,0001.71
2022-05-27 08:24:00,,0826.1,5.02,0.00,30.1,29.0,00.0,39.0,31.9,11.8,0000.0,0010.07,0002.63,0001.72
2022-05-27 08:25:00,,0826.2,4.99,0.00,30.1,29.0,00.0,39.0,31.9,11.8,0000.0,0010.44,0002.69,0001.71
2022-05-27 08:26:00,,0826.1,4.99,0.00,30.1,29.0,00.0,39.0,31.9,11.8,0000.0,0009.97,0002.69,0001.71
2022-05-27 08:27:00,,0826.1,5.01,0.00,30.1,29.0,00.0,39.0,31.9,11.9,0000.0,0011.11,0002.69,0001.70
2022-05-27 08:28:00,,0826.0,5.02,0.00,30.0,29.0,00.0,39.0,31.9,11.8,0000.0,0012.13,0002.69,0001.72
2022-05-27 08:29:00,,0826.0,4.99,0.00,30.1,29.0,00.0,39.0,31.9,11.6,0000.0,0012.23,0002.73,0001.74
2022-05-27 08:30:00,,0826.0,5.01,0.00,30.1,29.0,00.0,39.0,31.9,11.7,0000.0,0012.02,0002.76,0001.76
2022-05-27 08:31:00,,0826.0,5.01,0.00,30.1,29.0,00.0,39.0,31.9,11.6,0000.0,0011.65,0002.76,0001.77
2022-05-27 08:32:00,,0826.0,4.99,0.00,30.1,29.0,00.0,39.0,31.9,11.7,0000.0,0011.29,0002.77,0001.78
2022-05-27 08:33:00,,0826.0,5.00,0.00,30.1,29.0,00.0,39.0,31.9,11.6,0000.0,0011.28,0002.74,0001.78
2022-05-27 08:34:00,,0826.0,5.01,0.00,30.1,29.0,00.0,39.0,31.9,11.4,0000.0,0011.27,0002.71,0001.77
2022-05-27 08:35:00,,0826.1,4.99,0.00,30.1,29.0,00.0,39.0,31.9,11.3,0000.0,0010.11,0002.68,0001.77
2022-05-27 08:36:00,,0826.0,5.00,0.00,30.1,29.0,00.0,39.0,31.9,11.2,0000.0,0009.45,0002.65,0001.76
2022-05-27 08:37:00,,0826.0,5.00,0.00,30.1,29.0,00.0,39.0,31.9,11.2,0000.0,0009.65,0002.66,0001.76
2022-05-27 08:38:00,,0826.0,5.01,0.00,30.1,29.0,00.0,39.0,31.9,11.1,0000.0,0008.87,0002.69,0001.76
2022-05-27 08:39:00,,0826.0,5.00,0.00,30.1,29.0,00.0,39.0,31.9,11.3,0000.0,0007.84,0002.67,0001.74
2022-05-27 08:40:00,,0826.0,5.00,0.00,30.1,29.0,00.0,39.0,31.9,11.3,0000.0,0007.85,0002.62,0001.75
2022-05-27 08:41:00,,0826.0,5.00,0.00,30.1,29.0,00.0,39.0,31.9,11.2,0000.0,0007.78,0002.58,0001.72
2022-05-27 08:42:00,,0826.1,5.00,0.00,30.1,29.0,00.0,39.0,31.9,11.3,0000.0,0007.45,0002.56,0001.70
2022-05-27 08:43:00,,0826.0,5.01,0.00,30.1,29.0,00.0,39.0,31.9,11.5,0000.0,0007.71,0002.52,0001.69
2022-05-27 08:44:00,,0826.0,4.99,0.00,30.1,29.0,00.0,39.0,31.9,11.6,0000.0,0007.62,0002.50,0001.69
2022-05-27 08:45:00,,0826.0,5.00,0.00,30.1,29.0,00.0,39.0,31.9,11.5,0000.0,0007.55,0002.53,0001.70
2022-05-27 08:46:00,,0826.0,5.01,0.00,30.1,29.0,00.0,39.0,31.9,11.2,0000.0,0006.88,0002.54,0001.70
2022-05-27 08:47:00,,0826.0,5.00,0.00,30.1,29.0,00.0,39.0,31.9,11.2,0000.0,0006.65,0002.56,0001.70
2022-05-27 08:48:00,,0826.0,4.98,0.00,30.1,29.0,00.0,39.0,31.9,11.2,0000.0,0006.66,0002.59,0001.71
2022-05-27 08:49:00,,0826.0,5.01,0.00,30.1,29.0,00.0,39.0,31.9,11.1,0000.0,0006.51,0002.57,0001.70
2022-05-27 08:50:00,,0826.0,5.00,0.00,30.1,29.0,00.0,39.0,32.0,11.1,0000.0,0006.25,0002.54,0001.72
2022-05-27 08:51:00,,0826.0,4.98,0.00,30.1,29.0,00.0,39.0,32.0,11.0,0000.0,0005.99,0002.57,0001.71
2022-05-27 08:52:00,,0826.0,5.00,0.00,30.1,29.0,00.0,39.1,32.0,10.9,0000.0,0006.02,0002.61,0001.71
2022-05-27 08:53:00,,0826.0,5.01,0.00,30.1,29.0,00.0,39.1,32.0,10.9,0000.0,0005.42,0002.62,0001.71
2022-05-27 08:54:00,,0826.0,4.99,0.00,30.1,29.0,00.0,39.1,31.9,11.1,0000.0,0005.39,0002.64,0001.72
2022-05-27 08:55:00,,0826.1,5.00,0.00,30.1,29.0,00.0,39.1,31.9,11.3,0000.0,0006.60,0002.66,0001.73
2022-05-27 08:56:00,,0826.0,5.00,0.00,30.1,29.0,00.0,39.1,31.9,11.6,0000.0,0007.11,0002.67,0001.72
2022-05-27 08:57:00,,0826.0,5.00,0.00,30.1,29.0,00.0,39.1,31.9,11.5,0000.0,0007.16,0002.65,0001.72
2022-05-27 08:58:00,,0826.0,5.00,0.00,30.1,29.0,00.0,39.1,31.9,11.4,0000.0,0007.10,0002.59,0001.71
2022-05-27 08:59:00,,0826.0,5.01,0.00,30.1,29.0,00.0,39.1,31.9,11.4,0000.0,0006.61,0002.52,0001.69
